This is the latest recevied weather packets stored in our database for station/object G4ZMG. If no packets are shown the sender has not sent any weather packets the latest 10 day(s).
| Time | Temp. | Humidity | Pressure | Rain* | Wind** | Luminosity | Snow |
|---|---|---|---|---|---|---|---|
| 1777895432 | 13.33° C | 79% | 1014 hPa | 0 mm | - | 257 W/m² | - |
| 1777894821 | 13.89° C | 81% | 1014.1 hPa | 0 mm | - | 475 W/m² | - |
| 1777894204 | 13.33° C | 80% | 1014.2 hPa | 0 mm | - | 285 W/m² | - |
| 1777893603 | 13.33° C | 81% | 1014.2 hPa | 0 mm | - | 345 W/m² | - |
| 1777893022 | 13.33° C | 82% | 1014.1 hPa | 0 mm | - | 441 W/m² | - |
| 1777892423 | 12.78° C | 85% | 1014 hPa | 0 mm | - | 512 W/m² | - |
| 1777891810 | 12.78° C | 85% | 1014 hPa | 0 mm | - | 253 W/m² | - |
| 1777891205 | 12.78° C | 86% | 1013.9 hPa | 0 mm | - | 251 W/m² | - |
| 1777890641 | 12.78° C | 86% | 1014 hPa | 0 mm | - | 318 W/m² | - |
| 1777890027 | 12.22° C | 86% | 1013.9 hPa | 0 mm | - | 264 W/m² | - |
| 1777889410 | 12.22° C | 86% | 1013.9 hPa | 0 mm | - | 200 W/m² | - |
| 1777888807 | 12.22° C | 86% | 1013.8 hPa | 0 mm | - | 134 W/m² | - |
| 1777888202 | 12.22° C | 85% | 1013.8 hPa | 0 mm | - | 171 W/m² | - |
| 1777887644 | 12.22° C | 85% | 1013.8 hPa | 0 mm | - | 200 W/m² | - |
| 1777887037 | 12.78° C | 86% | 1013.7 hPa | 0 mm | - | 204 W/m² | - |
| 1777886433 | 12.78° C | 88% | 1013.6 hPa | 0 mm | - | 353 W/m² | - |
| 1777885821 | 12.22° C | 89% | 1013.7 hPa | 0 mm | - | 341 W/m² | - |
| 1777885220 | 11.67° C | 90% | 1013.6 hPa | 0 mm | - | 258 W/m² | - |
| 1777884605 | 11.67° C | 90% | 1013.5 hPa | 0 mm | - | 202 W/m² | - |
| 1777884043 | 11.67° C | 91% | 1013.5 hPa | 0 mm | - | 211 W/m² | - |
| 1777883435 | 11.67° C | 92% | 1013.5 hPa | 0 mm | - | 276 W/m² | - |
| 1777882831 | 11.11° C | 92% | 1013.5 hPa | 0 mm | - | 251 W/m² | - |
| 1777882209 | 11.11° C | 93% | 1013.4 hPa | 0 mm | - | 171 W/m² | - |
| 1777881627 | 11.11° C | 93% | 1013.4 hPa | 0 mm | - | 151 W/m² | - |
| 1777881025 | 11.11° C | 93% | 1013.3 hPa | 0 mm | - | 141 W/m² | - |
* Rain latest hour (hover to see other rain measurements)
** Current wind speed in m/s (hover to see current wind gust speed)